Location: Centerville
(32.8776°N, 96.6203°W)
Time: 10:25:17
(UTC+00:00)

Cosmos 2237 - Pass Details

Date: 01 November 2021
Orbit: 845 x 856 km, 70.8° (Epoch: 08 December)

Event Time Altitude Azimuth Distance (km) Brightness Sun altitude
Rises 00:26:47 0° 240° (WSW) 3,408 8.9 -11.2°
Reaches altitude 10° 00:29:59 10° 258° (WSW) 2,478 8.2 -11.9°
Maximum altitude 00:33:54 19° 302° (WNW) 1,935 6.7 -12.7°
Drops below altitude 10° 00:37:51 10° 346° (NNW) 2,490 6.7 -13.5°
Sets 00:41:05 0° 4° (N) 3,431 7.2 -14.2°
